Change the Weather History Date:

Tuesday, November 12, 2013

  Actual Average Record
Temperature  
Mean Temperature 36 °F 42 °F  
Max Temperature 48 °F 55 °F 67 °F (1982)
Min Temperature 23 °F 30 °F 16 °F (2001)
Degree Days  
Heating Degree Days 30    
Month to date heating degree days  
Since 1 July heating degree days  
Cooling Degree Days 0    
Month to date cooling degree days  
Year to date cooling degree days  
Moisture  
Dew Point 20 °F    
Average Humidity 62    
Maximum Humidity 86    
Minimum Humidity 30    
Precipitation  
Precipitation 0.00 in 0.09 in 0.87 in (1968)
Month to date precipitation 1.13  
Year to date precipitation 35.08  
Snow  
Snow 0.00 in - - ()
Month to date snowfall  
Since 1 July snowfall  
Since 1 September snowfall  
Snow Depth -    
Sea Level Pressure  
Sea Level Pressure 30.24 in    
Wind  
Wind Speed 7 mph (NW)    
Max Wind Speed 16 mph    
Max Gust Speed 23 mph    
Visibility 9 miles    
Events Snow    
T = Trace of Precipitation, MM = Missing Value Source: NWS Daily Summary

Daily Weather History Graph

Daily Weather History Graph

Search for Another Location

Airport or City:

Trip Planner

Search our weather history database for the weather conditions in past years. The results will help you decide how hot, cold, wet, or windy it might be!

Date:

Astronomy

Nov. 12, 2013 Rise Set
Actual Time 6:59 AM EST 5:12 PM EST
Civil Twilight 6:31 AM EST 5:39 PM EST
Nautical Twilight 5:59 AM EST 6:11 PM EST
Astronomical Twilight 5:28 AM EST 6:42 PM EST
Moon 2:21 PM EST (11/12) 1:52 AM EST (11/12)
Length of Visible Light 11h 08m
Length of Day
10h 13m
Waxing Gibbous, 76% of the Moon is Illuminated
Nov 12
Waxing Gibbous
Nov 17
Full
Nov 25
Last Quarter
Dec 2
New
Dec 9
First Quarter

Hourly Weather History & Observations

Time (EST) Temp. Windchill Dew Point Humidity Pressure Visibility Wind Dir Wind Speed Gust Speed Precip Events Conditions
12:15 AM 43.9 °F 42.3 °F 19.6 °F 38% 30.08 in 10.0 mi South 3.5 mph - N/A   Overcast
12:35 AM 44.2 °F 41.0 °F 19.6 °F 37% 30.07 in 10.0 mi SSW 5.8 mph - N/A   Mostly Cloudy
12:55 AM 45.9 °F 42.9 °F 17.2 °F 32% 30.07 in 10.0 mi South 5.8 mph - N/A   Mostly Cloudy
1:15 AM 45.1 °F 42.8 °F 16.5 °F 32% 30.07 in 10.0 mi South 4.6 mph - N/A   Scattered Clouds
1:35 AM 45.3 °F 43.0 °F 17.4 °F 33% 30.06 in 10.0 mi SSW 4.6 mph - N/A   Mostly Cloudy
1:55 AM 46.4 °F 45.2 °F 17.4 °F 31% 30.06 in 10.0 mi SSW 3.5 mph - N/A   Overcast
2:15 AM 46.0 °F - 17.4 °F 32% 30.05 in 10.0 mi Calm Calm - N/A   Overcast
2:35 AM 45.5 °F 43.2 °F 18.3 °F 34% 30.05 in 10.0 mi SSW 4.6 mph - N/A   Overcast
2:55 AM 46.6 °F - 17.1 °F 31% 30.05 in 10.0 mi SW 4.6 mph - N/A   Overcast
3:15 AM 47.7 °F - 17.6 °F 30% 30.04 in 10.0 mi SW 4.6 mph - N/A   Overcast
3:35 AM 48.2 °F - 18.0 °F 30% 30.05 in 10.0 mi West 4.6 mph - N/A   Overcast
3:55 AM 47.7 °F - 19.4 °F 33% 30.05 in 10.0 mi West 4.6 mph - N/A   Overcast
4:15 AM 47.7 °F - 21.4 °F 35% 30.05 in 10.0 mi WNW 5.8 mph - N/A   Overcast
4:35 AM 45.7 °F 41.5 °F 27.0 °F 48% 30.07 in 10.0 mi NNW 8.1 mph - N/A   Overcast
4:55 AM 44.6 °F 42.2 °F 29.1 °F 55% 30.08 in 10.0 mi WNW 4.6 mph - N/A   Overcast
5:15 AM 43.7 °F 39.1 °F 31.5 °F 62% 30.08 in 10.0 mi WNW 8.1 mph - N/A   Overcast
5:35 AM 43.0 °F 38.2 °F 32.0 °F 65% 30.09 in 10.0 mi WNW 8.1 mph - N/A   Overcast
5:55 AM 42.4 °F 37.5 °F 32.7 °F 68% 30.09 in 10.0 mi NW 8.1 mph - N/A   Overcast
6:15 AM 41.4 °F 36.2 °F 32.9 °F 72% 30.11 in 10.0 mi NNW 8.1 mph - N/A   Overcast
6:35 AM 40.1 °F 34.7 °F 31.3 °F 71% 30.11 in 10.0 mi NW 8.1 mph - N/A   Overcast
6:55 AM 38.8 °F 32.1 °F 29.7 °F 70% 30.13 in 10.0 mi NNW 10.4 mph - N/A   Overcast
7:15 AM 37.4 °F 29.8 °F 26.6 °F 65% 30.15 in 10.0 mi NW 11.5 mph 19.6 mph N/A   Overcast
7:35 AM 35.2 °F 27.6 °F 24.8 °F 66% 30.17 in 10.0 mi NNW 10.4 mph 20.7 mph N/A   Overcast
7:55 AM 34.2 °F 27.5 °F 23.7 °F 66% 30.19 in 10.0 mi NNW 8.1 mph - N/A   Overcast
8:15 AM 33.4 °F 26.6 °F 23.0 °F 66% 30.20 in 10.0 mi NNW 8.1 mph - N/A   Overcast
8:35 AM 33.3 °F 25.7 °F 22.5 °F 65% 30.20 in 10.0 mi North 9.2 mph - N/A   Overcast
8:55 AM 33.3 °F 25.1 °F 22.3 °F 64% 30.21 in 10.0 mi North 10.4 mph - N/A   Overcast
9:15 AM 33.1 °F 25.5 °F 21.9 °F 64% 30.21 in 10.0 mi North 9.2 mph 16.1 mph N/A   Overcast
9:35 AM 32.9 °F 25.3 °F 22.1 °F 65% 30.21 in 10.0 mi North 9.2 mph - N/A   Overcast
9:55 AM 32.9 °F 24.1 °F 21.2 °F 62% 30.22 in 10.0 mi NNW 11.5 mph 21.9 mph N/A   Overcast
10:15 AM 33.4 °F 24.8 °F 21.2 °F 61% 30.23 in 10.0 mi NNW 11.5 mph 17.3 mph N/A   Overcast
10:35 AM 34.0 °F 24.6 °F 20.1 °F 57% 30.24 in 10.0 mi NNW 13.8 mph 23.0 mph N/A   Overcast
10:55 AM 32.5 °F 23.2 °F 19.8 °F 59% 30.24 in 10.0 mi NNW 12.7 mph 18.4 mph N/A   Overcast
11:15 AM 32.2 °F 23.8 °F 20.1 °F 61% 30.24 in 10.0 mi NNW 10.4 mph - N/A   Overcast
11:35 AM 32.0 °F 22.1 °F 19.8 °F 61% 30.25 in 10.0 mi NNW 13.8 mph 19.6 mph N/A   Overcast
11:55 AM 31.3 °F 23.9 °F 20.3 °F 64% 30.24 in 10.0 mi NNW 8.1 mph - N/A   Overcast
12:15 PM 31.1 °F 22.4 °F 20.3 °F 64% 30.24 in 10.0 mi North 10.4 mph - N/A   Overcast
12:35 PM 30.9 °F 21.2 °F 20.1 °F 64% 30.24 in 10.0 mi NNW 12.7 mph 18.4 mph N/A   Overcast
12:55 PM 30.2 °F 19.3 °F 20.3 °F 67% 30.25 in 10.0 mi North 15.0 mph 21.9 mph N/A   Overcast
1:15 PM 30.0 °F 21.7 °F 19.2 °F 64% 30.26 in 10.0 mi NNW 9.2 mph 17.3 mph N/A   Overcast
1:35 PM 29.5 °F 18.8 °F 19.0 °F 65% 30.26 in 10.0 mi NNW 13.8 mph 17.3 mph N/A   Overcast
1:55 PM 30.0 °F 22.4 °F 20.7 °F 68% 30.27 in 10.0 mi NNW 8.1 mph - N/A   Overcast
2:15 PM 29.3 °F 19.6 °F 21.6 °F 73% 30.27 in 7.0 mi NNW 11.5 mph - N/A Snow Light Snow
2:35 PM 30.0 °F 20.5 °F 19.9 °F 66% 30.28 in 7.0 mi North 11.5 mph 18.4 mph N/A Snow Light Snow
2:55 PM 30.4 °F 19.5 °F 16.7 °F 57% 30.28 in 10.0 mi NNW 15.0 mph 21.9 mph N/A   Overcast
3:15 PM 29.3 °F 19.6 °F 17.6 °F 62% 30.29 in 10.0 mi NNW 11.5 mph 23.0 mph N/A   Scattered Clouds
3:35 PM 30.2 °F 18.9 °F 16.2 °F 56% 30.29 in 10.0 mi NNW 16.1 mph 20.7 mph N/A   Clear
3:55 PM 28.2 °F 19.5 °F 19.4 °F 70% 30.30 in 4.0 mi NNW 9.2 mph - N/A Snow Light Snow
4:15 PM 28.0 °F 20.0 °F 18.3 °F 67% 30.31 in 7.0 mi North 8.1 mph 18.4 mph N/A Snow Light Snow
4:35 PM 27.1 °F 17.5 °F 16.7 °F 65% 30.32 in 10.0 mi NNW 10.4 mph 16.1 mph N/A   Scattered Clouds
4:55 PM 26.4 °F 16.6 °F 17.6 °F 69% 30.33 in 7.0 mi NNW 10.4 mph 19.6 mph N/A Snow Light Snow
5:15 PM 26.1 °F 16.2 °F 15.4 °F 64% 30.34 in 10.0 mi North 10.4 mph 20.7 mph N/A   Scattered Clouds
5:35 PM 25.7 °F 17.1 °F 13.8 °F 61% 30.35 in 10.0 mi North 8.1 mph - N/A   Clear
5:55 PM 25.5 °F 19.9 °F 13.1 °F 59% 30.36 in 10.0 mi NNW 4.6 mph - N/A   Clear
6:15 PM 24.6 °F 15.8 °F 15.8 °F 69% 30.37 in 10.0 mi NNW 8.1 mph - N/A   Clear
6:35 PM 24.6 °F 17.7 °F 15.1 °F 67% 30.38 in 10.0 mi NW 5.8 mph - N/A   Clear
6:55 PM 24.4 °F - 15.8 °F 70% 30.38 in 10.0 mi Calm Calm - N/A   Scattered Clouds
7:15 PM 24.8 °F 14.6 °F 16.3 °F 70% 30.38 in 10.0 mi NNW 10.4 mph - N/A   Overcast
7:35 PM 24.4 °F 16.5 °F 19.0 °F 80% 30.39 in 4.0 mi North 6.9 mph - N/A Snow Light Snow
7:55 PM 23.9 °F 16.8 °F 19.8 °F 84% 30.40 in 10.0 mi NNW 5.8 mph - N/A Snow Light Snow
8:15 PM 23.9 °F 19.5 °F 19.0 °F 82% 30.40 in 10.0 mi NNW 3.5 mph - N/A   Mostly Cloudy
8:35 PM 23.9 °F - 17.6 °F 77% 30.41 in 10.0 mi Calm Calm - N/A   Mostly Cloudy
8:55 PM 24.4 °F 18.6 °F 18.5 °F 78% 30.41 in 3.0 mi North 4.6 mph - N/A Snow Light Snow
9:15 PM 23.7 °F - 19.0 °F 82% 30.42 in 10.0 mi Calm Calm - N/A   Mostly Cloudy
9:35 PM 23.4 °F - 18.3 °F 81% 30.42 in 10.0 mi Calm Calm - N/A   Scattered Clouds
9:55 PM 23.4 °F 17.4 °F 18.5 °F 82% 30.43 in 10.0 mi WNW 4.6 mph - N/A Snow Light Snow
10:15 PM 23.9 °F 16.8 °F 18.1 °F 79% 30.42 in 10.0 mi NW 5.8 mph - N/A Snow Light Snow
10:35 PM 24.6 °F 17.7 °F 16.9 °F 72% 30.42 in 10.0 mi NNW 5.8 mph - N/A   Overcast
10:55 PM 24.8 °F 16.9 °F 17.1 °F 72% 30.42 in 10.0 mi NW 6.9 mph - N/A   Mostly Cloudy
11:15 PM 24.6 °F 18.8 °F 19.0 °F 79% 30.43 in 5.0 mi West 4.6 mph - N/A Snow Light Snow
11:35 PM 24.4 °F 18.6 °F 19.4 °F 81% 30.42 in 10.0 mi West 4.6 mph - N/A   Overcast
11:55 PM 23.9 °F - 20.3 °F 86% 30.43 in 1.8 mi Calm Calm - N/A Snow Light Snow